EW2889 Weather Reports


Display with metric or nautical units.
time (UTC)temp
F
wind
direction
speed
MPH
gust
MPH
rain 1hr
in
rain 24hr
in
rain mn
in
humidity
%
barometer
mb
20221209161509 52 303 1.0 11.0 0.00 0.00 0.00 72 1023.9
20221209160007 51 58 4.0 10.0 0.00 0.00 0.00 69 1024.1
20221209154511 52 287 0.0 6.0 0.00 0.00 0.00 69 1024.1
20221209153008 52 302 0.0 8.0 0.00 0.00 0.00 70 1024.2
20221209151505 51 19 0.0 6.0 0.00 0.00 0.00 70 1024.1
20221209150004 51 281 2.0 8.0 0.00 0.00 0.00 70 1024.1
20221209144502 50 17 3.0 11.0 0.00 0.00 0.00 70 1024.1
20221209143102 50 53 3.0 11.0 0.00 0.00 0.00 70 1024.1
20221209141559 50 60 0.0 10.0 0.00 0.00 0.00 72 1023.9
20221209140108 49 320 5.0 11.0 0.00 0.00 0.00 70 1023.9
20221209134557 49 18 2.0 11.0 0.00 0.00 0.00 72 1023.9
20221209133055 48 53 1.0 6.0 0.00 0.00 0.00 72 1023.7
20221209131600 48 101 0.0 10.0 0.00 0.00 0.00 72 1023.6
20221209130053 48 32 0.0 7.0 0.00 0.00 0.00 74 1023.5
20221209124552 47 36 2.0 5.0 0.00 0.00 0.00 75 1023.6
20221209123056 47 36 0.0 0.0 0.00 0.00 0.00 75 1023.5
20221209121558 47 28 0.0 5.0 0.00 0.00 0.00 74 1023.4
20221209120056 47 336 0.0 6.0 0.00 0.00 0.00 74 1023.3
20221209114556 47 46 0.0 3.0 0.00 0.00 0.00 74 1023.4
20221209113045 48 39 1.0 5.0 0.00 0.00 0.00 74 1023.4
20221209111546 48 37 0.0 8.0 0.00 0.00 0.00 74 1023.2
20221209110042 48 6 0.0 3.0 0.00 0.00 0.00 75 1023.0
20221209104541 48 66 0.0 4.0 0.00 0.00 0.00 76 1023.1
20221209103052 48 30 0.0 0.0 0.00 0.00 0.00 76 1023.1
20221209101543 48 32 0.0 0.0 0.00 0.00 0.00 74 1023.0
20221209100039 48 46 0.0 5.0 0.00 0.00 0.00 74 1022.8
20221209094537 48 28 0.0 3.0 0.00 0.00 0.00 75 1022.8
20221209093035 49 290 0.0 4.0 0.00 0.00 0.00 76 1022.9
20221209091534 49 56 0.0 6.0 0.00 0.00 0.00 77 1022.9
20221209090032 49 35 0.0 0.0 0.00 0.00 0.00 77 1022.9
20221209084530 49 20 0.0 4.0 0.00 0.00 0.00 77 1022.9
20221209083030 49 55 0.0 0.0 0.00 0.00 0.00 78 1023.1
20221209081528 50 42 0.0 0.0 0.00 0.00 0.00 79 1023.0
20221209080026 50 57 0.0 0.0 0.00 0.00 0.00 80 1023.1
20221209074524 50 360 0.0 2.0 0.00 0.00 0.00 80 1023.1
20221209073035 51 335 1.0 10.0 0.00 0.00 0.00 80 1023.1
20221209071525 51 68 0.0 5.0 0.00 0.00 0.00 81 1023.1
20221209070019 51 53 0.0 4.0 0.00 0.00 0.00 82 1023.0
20221209064519 51 69 0.0 8.0 0.00 0.00 0.00 82 1023.3
20221209063019 51 53 2.0 10.0 0.00 0.00 0.00 81 1023.1
20221209061516 52 45 1.0 7.0 0.00 0.00 0.00 80 1023.0
20221209060023 52 36 2.0 6.0 0.00 0.00 0.00 79 1023.2
20221209054512 52 54 0.0 3.0 0.00 0.00 0.00 79 1023.6
20221209053009 52 70 0.0 0.0 0.00 0.00 0.00 80 1023.3
20221209051508 52 49 0.0 4.0 0.00 0.00 0.00 79 1023.1
20221209050011 52 43 0.0 7.0 0.00 0.00 0.00 80 1023.3
20221209044505 52 338 1.0 7.0 0.00 0.00 0.00 82 1023.1
20221209043004 52 56 0.0 0.0 0.00 0.00 0.00 84 1023.4
20221209041504 52 51 0.0 0.0 0.00 0.00 0.00 84 1023.1
20221209040003 52 9 0.0 6.0 0.00 0.00 0.00 84 1023.1
20221209034506 51 51 0.0 0.0 0.00 0.00 0.00 84 1023.4
20221209033001 52 51 0.0 0.0 0.00 0.00 0.00 84 1023.0
20221209031501 52 51 0.0 0.0 0.00 0.00 0.00 84 1022.9
20221209030001 52 51 0.0 0.0 0.00 0.00 0.00 84 1023.0
20221209024606 52 51 0.0 0.0 0.00 0.00 0.00 83 1023.2
20221209023113 52 41 0.0 2.0 0.00 0.00 0.00 83 1022.9
20221209021559 52 36 0.0 0.0 0.00 0.00 0.00 85 1022.9
20221209020130 51 63 0.0 0.0 0.00 0.00 0.00 85 1023.0
20221209014603 52 56 0.0 0.0 0.00 0.00 0.00 85 1023.1
20221209013106 52 52 0.0 0.0 0.00 0.00 0.00 85 1023.4
20221209011557 52 52 0.0 4.0 0.00 0.00 0.00 85 1023.4
20221209010057 52 127 0.0 0.0 0.00 0.00 0.00 85 1023.3
20221209004556 52 36 0.0 0.0 0.00 0.00 0.00 85 1023.2
20221209003057 52 34 0.0 0.0 0.00 0.00 0.00 86 1023.3
20221209001555 51 86 0.0 0.0 0.00 0.00 0.00 85 1023.3
20221209000054 52 60 0.0 0.0 0.00 0.00 0.00 84 1023.1
20221208234552 52 68 0.0 0.0 0.00 0.00 0.00 83 1023.0
20221208233051 52 68 0.0 0.0 0.00 0.00 0.00 82 1023.1
20221208231550 53 340 0.0 3.0 0.00 0.00 0.00 82 1023.1
20221208230050 53 330 0.0 0.0 0.00 0.00 0.00 81 1023.3
20221208224546 53 285 0.0 3.0 0.00 0.01 0.00 81 1023.4
20221208223049 53 284 0.0 3.0 0.00 0.01 0.00 82 1023.3
20221208221545 54 354 0.0 8.0 0.00 0.01 0.00 82 1023.1
20221208220044 54 63 0.0 5.0 0.00 0.01 0.00 82 1022.7
20221208214545 54 46 0.0 4.0 0.00 0.02 0.00 82 1022.5
20221208213145 54 51 0.0 3.0 0.00 0.02 0.00 83 1022.8
20221208211545 54 41 0.0 5.0 0.00 0.02 0.00 85 1022.6
20221208210047 54 61 0.0 4.0 0.00 0.02 0.00 87 1022.8
20221208204539 54 48 1.0 6.0 0.00 0.02 0.00 87 1022.6
20221208203037 55 63 0.0 3.0 0.00 0.02 0.00 86 1022.8
20221208201541 55 55 0.0 0.0 0.00 0.02 0.00 86 1023.2
20221208200036 55 43 0.0 2.0 0.00 0.02 0.00 84 1023.0
20221208194537 56 286 0.0 0.0 0.00 0.04 0.00 84 1023.0
20221208193046 56 77 2.0 8.0 0.00 0.04 0.00 82 1022.8
20221208191539 57 30 0.0 6.0 0.00 0.04 0.00 81 1022.9
20221208190037 57 32 0.0 5.0 0.00 0.04 0.00 82 1022.9
20221208184536 56 78 2.0 9.0 0.00 0.07 0.00 81 1023.1
20221208183035 57 90 0.0 7.0 0.00 0.07 0.00 81 1023.2
20221208181532 57 49 0.0 8.0 0.00 0.07 0.00 80 1023.4
20221208180030 57 51 0.0 8.0 0.00 0.07 0.00 80 1023.5
20221208174536 58 49 2.0 8.0 0.00 0.07 0.00 79 1023.5
20221208173043 59 41 1.0 5.0 0.00 0.07 0.00 78 1023.5
20221208171529 58 274 4.0 12.0 0.00 0.07 0.00 77 1023.5
20221208170029 58 354 3.0 12.0 0.00 0.07 0.00 79 1023.6
20221208164527 59 33 6.0 12.0 0.00 0.07 0.00 75 1023.9
20221208163037 59 25 1.0 10.0 0.00 0.07 0.00 79 1024.0